Weather History for Erie, CO

Change the Weather History Date:

Thursday, March 14, 2013

  Actual Average (KBJC) Record (KBJC)
Temperature  
Mean Temperature 52 °F -  
Max Temperature 72 °F 50 °F 77 °F (2003)
Min Temperature 33 °F 30 °F 12 °F (1988)
Degree Days  
Heating Degree Days 12    
Growing Degree Days 2 (Base 50)    
Moisture  
Dew Point 27 °F    
Average Humidity 48    
Maximum Humidity 83    
Minimum Humidity 14    
Precipitation  
Precipitation 0.00 in - - ()
Sea Level Pressure  
Sea Level Pressure 30.22 in    
Wind  
Wind Speed 3 mph (SE)    
Max Wind Speed 10 mph    
Max Gust Speed -    
Visibility 10 miles    
Events      
Averages and records for this station are not official NWS values.
T = Trace of Precipitation, MM = Missing Value Source: NWS Daily Summary

Daily Weather History Graph

Daily Weather History Graph

Search for Another Location

Airport:

Trip Planner

Search our weather history database for the weather conditions in past years. The results will help you decide how hot, cold, wet, or windy it might be!

Date:

Astronomy

Mar. 14, 2013 Rise Set
Actual Time 7:12 AM MDT 7:06 PM MDT
Civil Twilight 6:45 AM MDT 7:33 PM MDT
Nautical Twilight 6:14 AM MDT 8:04 PM MDT
Astronomical Twilight 5:42 AM MDT 8:36 PM MDT
Moon 8:28 AM MDT (3/14) 10:25 PM MDT (3/14)
Length of Visible Light 12h 47m
Length of Day
11h 53m
Waxing Crescent, 9% of the Moon is Illuminated
Mar 14
Waxing Crescent
Mar 19
First Quarter
Mar 27
Full
Apr 2
Last Quarter
Apr 10
New

Hourly Weather History & Observations

Time (MDT) Temp. Windchill Dew Point Humidity Pressure Visibility Wind Dir Wind Speed Gust Speed Precip Events Conditions
12:16 AM 40.5 °F - 30.4 °F 67% 30.24 in 10.0 mi Calm Calm - N/A   Clear
12:56 AM 38.7 °F 34.3 °F 31.1 °F 74% 30.23 in 10.0 mi South 5.8 mph - N/A   Clear
1:16 AM 39.2 °F 37.0 °F 29.5 °F 68% 30.23 in 10.0 mi SSW 3.5 mph - N/A   Clear
1:36 AM 38.1 °F - 29.5 °F 71% 30.23 in 10.0 mi Calm Calm - N/A   Clear
1:56 AM 39.0 °F - 28.8 °F 67% 30.23 in 10.0 mi Calm Calm - N/A   Clear
2:16 AM 37.4 °F 34.9 °F 29.8 °F 74% 30.24 in 10.0 mi SSW 3.5 mph - N/A   Clear
2:36 AM 37.2 °F - 29.8 °F 75% 30.24 in 10.0 mi Calm Calm - N/A   Clear
2:56 AM 36.7 °F 32.9 °F 29.5 °F 75% 30.23 in 10.0 mi SW 4.6 mph - N/A   Clear
3:16 AM 37.9 °F 32.7 °F 29.5 °F 72% 30.22 in 10.0 mi SSW 6.9 mph - N/A   Clear
3:36 AM 39.4 °F 35.2 °F 29.3 °F 67% 30.22 in 10.0 mi South 5.8 mph - N/A   Clear
3:56 AM 40.1 °F 38.0 °F 28.8 °F 64% 30.22 in 10.0 mi SSW 3.5 mph - N/A   Clear
4:16 AM 39.6 °F - 28.4 °F 64% 30.22 in 10.0 mi Calm Calm - N/A   Clear
4:36 AM 38.8 °F 34.6 °F 28.9 °F 68% 30.22 in 10.0 mi South 5.8 mph - N/A   Scattered Clouds
4:56 AM 37.0 °F - 29.3 °F 74% 30.22 in 10.0 mi Calm Calm - N/A   Clear
5:16 AM 35.8 °F - 30.7 °F 82% 30.23 in 10.0 mi Calm Calm - N/A   Scattered Clouds
5:36 AM 37.8 °F - 30.6 °F 75% 30.24 in 10.0 mi Calm Calm - N/A   Mostly Cloudy
5:56 AM 37.2 °F - 30.4 °F 76% 30.25 in 10.0 mi Calm Calm - N/A   Scattered Clouds
6:16 AM 36.3 °F - 30.7 °F 80% 30.25 in 10.0 mi Calm Calm - N/A   Clear
6:36 AM 34.9 °F - 30.2 °F 83% 30.26 in 10.0 mi Calm Calm - N/A   Clear
6:56 AM 34.9 °F - 29.7 °F 81% 30.26 in 10.0 mi Calm Calm - N/A   Clear
7:16 AM 33.6 °F - 28.8 °F 82% 30.26 in 10.0 mi Calm Calm - N/A   Clear
7:36 AM 34.0 °F 31.0 °F 29.3 °F 83% 30.27 in 10.0 mi SSE 3.5 mph - N/A   Clear
7:56 AM 35.8 °F - 30.4 °F 81% 30.28 in 10.0 mi Calm Calm - N/A   Clear
8:16 AM 39.2 °F - 31.8 °F 75% 30.29 in 10.0 mi Calm Calm - N/A   Clear
8:36 AM 42.8 °F - 31.3 °F 64% 30.30 in 10.0 mi Calm Calm - N/A   Clear
8:56 AM 44.6 °F 42.2 °F 31.6 °F 60% 30.30 in 10.0 mi North 4.6 mph - N/A   Clear
9:16 AM 46.6 °F - 30.7 °F 54% 30.30 in 10.0 mi Calm Calm - N/A   Clear
9:36 AM 49.5 °F - 30.0 °F 47% 30.30 in 10.0 mi Calm Calm - N/A   Clear
9:56 AM 52.2 °F - 30.2 °F 43% 30.30 in 10.0 mi Calm Calm - N/A   Clear
10:16 AM 54.5 °F - 29.7 °F 39% 30.30 in 10.0 mi Calm Calm - N/A   Clear
10:36 AM 57.6 °F - 29.7 °F 35% 30.29 in 10.0 mi ESE 4.6 mph - N/A   Clear
10:56 AM 61.3 °F - 25.2 °F 25% 30.28 in 10.0 mi ESE 3.5 mph - N/A   Clear
11:16 AM 63.1 °F - 26.1 °F 25% 30.28 in 10.0 mi ESE 5.8 mph - N/A   Clear
11:36 AM 63.5 °F - 21.0 °F 20% 30.28 in 10.0 mi Calm Calm - N/A   Clear
11:56 AM 63.1 °F - 20.3 °F 19% 30.27 in 10.0 mi Calm Calm - N/A   Clear
12:16 PM 64.2 °F - 19.9 °F 18% 30.26 in 10.0 mi Calm Calm - N/A   Clear
12:36 PM 66.2 °F - 20.1 °F 17% 30.25 in 10.0 mi Calm Calm - N/A   Clear
12:56 PM 66.7 °F - 20.8 °F 17% 30.24 in 10.0 mi East 6.9 mph - N/A   Clear
1:16 PM 66.9 °F - 20.8 °F 17% 30.23 in 10.0 mi Calm Calm - N/A   Clear
1:36 PM 67.6 °F - 19.8 °F 16% 30.22 in 10.0 mi Calm Calm - N/A   Clear
1:56 PM 68.9 °F - 20.5 °F 16% 30.21 in 10.0 mi East 3.5 mph - N/A   Clear
2:16 PM 69.8 °F - 21.2 °F 16% 30.19 in 10.0 mi ESE 6.9 mph - N/A   Clear
2:36 PM 70.2 °F - 20.3 °F 15% 30.18 in 10.0 mi East 6.9 mph - N/A   Clear
2:56 PM 69.3 °F - 18.3 °F 14% 30.17 in 10.0 mi Calm Calm - N/A   Clear
3:16 PM 70.9 °F - 19.9 °F 15% 30.17 in 10.0 mi ESE 5.8 mph - N/A   Clear
3:36 PM 72.3 °F - 19.9 °F 14% 30.17 in 10.0 mi East 9.2 mph - N/A   Clear
3:56 PM 71.4 °F - 19.9 °F 14% 30.16 in 10.0 mi ENE 8.1 mph - N/A   Clear
4:16 PM 70.5 °F - 20.3 °F 15% 30.16 in 10.0 mi East 8.1 mph - N/A   Clear
4:36 PM 70.7 °F - 21.0 °F 15% 30.16 in 10.0 mi East 8.1 mph - N/A   Clear
4:56 PM 70.7 °F - 22.3 °F 16% 30.16 in 10.0 mi East 10.4 mph - N/A   Clear
5:16 PM 69.8 °F - 20.5 °F 15% 30.16 in 10.0 mi East 6.9 mph - N/A   Clear
5:36 PM 69.8 °F - 21.6 °F 16% 30.15 in 10.0 mi ESE 9.2 mph - N/A   Clear
5:56 PM 68.2 °F - 22.5 °F 18% 30.16 in 10.0 mi ESE 6.9 mph - N/A   Clear
6:16 PM 65.1 °F - 27.1 °F 24% 30.17 in 10.0 mi ESE 10.4 mph - N/A   Clear
6:36 PM 63.7 °F - 28.8 °F 27% 30.17 in 10.0 mi Calm Calm - N/A   Clear
6:56 PM 61.5 °F - 30.0 °F 30% 30.18 in 10.0 mi ESE 3.5 mph - N/A   Clear
7:16 PM 61.3 °F - 29.1 °F 30% 30.17 in 10.0 mi SSW 3.5 mph - N/A   Clear
7:36 PM 56.7 °F - 32.0 °F 39% 30.17 in 10.0 mi SE 4.6 mph - N/A   Clear
7:56 PM 56.1 °F - 30.7 °F 38% 30.17 in 10.0 mi SSE 3.5 mph - N/A   Clear
8:16 PM 54.0 °F - 31.8 °F 43% 30.17 in 10.0 mi SSW 3.5 mph - N/A   Clear
8:36 PM 50.0 °F - 33.3 °F 53% 30.17 in 10.0 mi Calm Calm - N/A   Clear
8:56 PM 49.1 °F - 33.3 °F 54% 30.17 in 10.0 mi Calm Calm - N/A   Clear
9:16 PM 46.8 °F - 32.9 °F 59% 30.18 in 10.0 mi Calm Calm - N/A   Clear
9:36 PM 45.0 °F - 33.4 °F 64% 30.17 in 10.0 mi Calm Calm - N/A   Clear
10:16 PM 42.6 °F - 32.4 °F 67% 30.17 in 10.0 mi Calm Calm - N/A   Clear
10:36 PM 42.8 °F 40.1 °F 31.5 °F 64% 30.16 in 10.0 mi SW 4.6 mph - N/A   Clear
10:56 PM 43.5 °F 40.1 °F 30.4 °F 60% 30.16 in 10.0 mi South 5.8 mph - N/A   Clear
11:16 PM 42.4 °F 40.7 °F 31.1 °F 64% 30.15 in 10.0 mi South 3.5 mph - N/A   Clear
11:36 PM 44.1 °F 42.5 °F 31.6 °F 62% 30.14 in 10.0 mi SSW 3.5 mph - N/A   Clear
11:56 PM 45.0 °F - 31.8 °F 60% 30.13 in 10.0 mi Calm Calm - N/A   Clear